TimeEST,TemperatureF,Dew PointF,Humidity,Sea Level PressureIn,VisibilityMPH,Wind Direction,Wind SpeedMPH,Gust SpeedMPH,PrecipitationIn,Events,Conditions,WindDirDegrees,DateUTC
12:15 AM,46.8,43.5,88,30.02,10.0,East,9.2,-,N/A,,Overcast,90,2012-11-04 04:15:00
12:35 AM,46.9,43.3,87,30.02,10.0,ENE,5.8,-,N/A,,Overcast,70,2012-11-04 04:35:00
12:55 AM,47.3,43.2,86,30.01,10.0,East,8.1,-,N/A,,Overcast,100,2012-11-04 04:55:00
1:15 AM,46.8,43.2,87,30.01,10.0,ENE,3.5,-,N/A,,Overcast,60,2012-11-04 05:15:00
1:35 AM,46.4,43.3,89,30.00,10.0,East,6.9,-,N/A,,Overcast,80,2012-11-04 05:35:00
1:55 AM,46.2,43.2,89,29.99,10.0,ENE,5.8,-,N/A,,Overcast,70,2012-11-04 05:55:00
1:15 AM,46.4,43.2,88,29.99,10.0,East,4.6,-,N/A,,Overcast,100,2012-11-04 06:15:00
1:35 AM,46.4,43.0,88,29.99,10.0,East,6.9,-,N/A,,Overcast,80,2012-11-04 06:35:00
1:55 AM,47.3,43.0,85,29.99,10.0,ENE,5.8,-,N/A,,Overcast,70,2012-11-04 06:55:00
2:15 AM,48.2,43.7,84,29.99,10.0,Calm,Calm,-,N/A,,Overcast,0,2012-11-04 07:15:00
2:35 AM,47.8,44.2,87,29.98,10.0,ESE,3.5,-,N/A,,Overcast,120,2012-11-04 07:35:00
2:55 AM,47.7,44.6,89,29.98,10.0,East,3.5,-,N/A,,Overcast,80,2012-11-04 07:55:00
3:15 AM,48.2,44.4,87,29.98,10.0,East,3.5,-,N/A,,Overcast,100,2012-11-04 08:15:00
3:35 AM,47.8,44.6,89,29.98,10.0,Calm,Calm,-,N/A,,Overcast,0,2012-11-04 08:35:00
3:55 AM,47.3,44.6,90,29.98,10.0,East,3.5,-,N/A,,Overcast,80,2012-11-04 08:55:00
4:15 AM,47.1,44.4,90,29.98,10.0,Calm,Calm,-,N/A,,Overcast,0,2012-11-04 09:15:00
4:35 AM,47.3,44.2,89,29.98,10.0,Calm,Calm,-,N/A,,Overcast,0,2012-11-04 09:35:00
4:55 AM,47.3,44.8,91,29.99,10.0,Calm,Calm,-,N/A,,Overcast,0,2012-11-04 09:55:00
5:15 AM,46.9,44.6,92,29.99,10.0,Calm,Calm,-,N/A,,Overcast,0,2012-11-04 10:15:00
5:35 AM,46.4,44.6,93,29.99,10.0,Calm,Calm,-,N/A,,Overcast,0,2012-11-04 10:35:00
5:55 AM,46.6,44.1,91,29.99,10.0,Calm,Calm,-,N/A,,Overcast,0,2012-11-04 10:55:00
6:15 AM,45.0,43.7,95,29.99,10.0,Calm,Calm,-,N/A,,Mostly Cloudy,0,2012-11-04 11:15:00
6:35 AM,44.8,43.9,97,29.99,10.0,Calm,Calm,-,N/A,,Overcast,0,2012-11-04 11:35:00
6:55 AM,45.0,44.2,97,30.00,10.0,Calm,Calm,-,N/A,,Overcast,0,2012-11-04 11:55:00
7:15 AM,45.5,44.4,96,30.00,10.0,Calm,Calm,-,N/A,,Overcast,0,2012-11-04 12:15:00
7:35 AM,44.8,44.6,99,30.01,10.0,Calm,Calm,-,N/A,,Overcast,0,2012-11-04 12:35:00
7:55 AM,45.3,45.1,99,30.02,10.0,Calm,Calm,-,N/A,,Overcast,0,2012-11-04 12:55:00
8:15 AM,46.6,45.7,97,30.02,10.0,Calm,Calm,-,N/A,,Overcast,0,2012-11-04 13:15:00
8:35 AM,47.8,46.0,93,30.03,10.0,Calm,Calm,-,N/A,,Overcast,0,2012-11-04 13:35:00
8:55 AM,49.3,46.6,90,30.02,10.0,Calm,Calm,-,N/A,,Overcast,0,2012-11-04 13:55:00
9:15 AM,49.8,46.0,87,30.02,10.0,North,3.5,-,N/A,,Overcast,350,2012-11-04 14:15:00
9:35 AM,50.2,46.4,87,30.02,10.0,North,3.5,-,N/A,,Overcast,350,2012-11-04 14:35:00
9:55 AM,50.2,46.8,88,30.02,10.0,North,3.5,-,N/A,,Overcast,360,2012-11-04 14:55:00
10:15 AM,50.9,46.0,83,30.02,10.0,North,3.5,-,N/A,,Scattered Clouds,10,2012-11-04 15:15:00
10:35 AM,51.1,45.9,82,30.03,10.0,North,3.5,-,N/A,,Scattered Clouds,10,2012-11-04 15:35:00
10:55 AM,51.6,45.7,80,30.03,10.0,NNW,3.5,-,N/A,,Scattered Clouds,340,2012-11-04 15:55:00
11:15 AM,52.2,45.9,79,30.03,10.0,West,3.5,-,N/A,,Overcast,280,2012-11-04 16:15:00
11:35 AM,52.2,45.5,78,30.02,10.0,NW,4.6,-,N/A,,Overcast,320,2012-11-04 16:35:00
11:55 AM,52.3,45.3,77,30.02,10.0,NNW,4.6,-,N/A,,Overcast,330,2012-11-04 16:55:00
12:15 PM,51.8,44.6,76,30.02,10.0,NW,8.1,-,N/A,,Mostly Cloudy,320,2012-11-04 17:15:00
12:35 PM,52.3,44.6,75,30.01,10.0,NNW,5.8,-,N/A,,Scattered Clouds,330,2012-11-04 17:35:00
12:55 PM,53.4,44.4,72,30.01,10.0,North,5.8,-,N/A,,Clear,350,2012-11-04 17:55:00
1:15 PM,53.6,44.4,71,30.00,10.0,NNW,4.6,-,N/A,,Clear,340,2012-11-04 18:15:00
1:35 PM,53.8,43.5,68,30.00,10.0,NW,8.1,-,N/A,,Clear,320,2012-11-04 18:35:00
1:55 PM,54.5,43.5,66,30.00,10.0,NW,8.1,-,N/A,,Scattered Clouds,320,2012-11-04 18:55:00
2:15 PM,52.5,42.3,68,30.01,10.0,NW,6.9,-,N/A,,Overcast,310,2012-11-04 19:15:00
2:35 PM,51.3,41.9,70,30.01,10.0,NNW,10.4,-,N/A,,Overcast,330,2012-11-04 19:35:00
2:55 PM,50.9,41.9,71,30.01,10.0,NW,6.9,-,N/A,,Overcast,320,2012-11-04 19:55:00
3:15 PM,50.9,42.3,72,30.01,10.0,WNW,3.5,-,N/A,,Overcast,290,2012-11-04 20:15:00
3:35 PM,51.4,42.1,70,30.01,10.0,NW,11.5,-,N/A,,Overcast,320,2012-11-04 20:35:00
3:55 PM,51.1,41.7,70,30.01,10.0,West,6.9,-,N/A,,Overcast,280,2012-11-04 20:55:00
4:15 PM,50.9,41.0,69,30.02,10.0,NNW,10.4,-,N/A,,Overcast,340,2012-11-04 21:15:00
4:35 PM,48.9,40.6,73,30.02,10.0,NNW,4.6,-,N/A,,Overcast,340,2012-11-04 21:35:00
4:55 PM,48.4,40.3,74,30.02,10.0,NNW,5.8,-,N/A,,Overcast,340,2012-11-04 21:55:00
5:15 PM,48.4,40.1,73,30.02,10.0,NNW,5.8,-,N/A,,Overcast,340,2012-11-04 22:15:00
5:35 PM,47.8,39.6,73,30.02,10.0,North,5.8,-,N/A,,Overcast,350,2012-11-04 22:35:00
5:55 PM,47.1,39.2,74,30.03,10.0,North,6.9,-,N/A,,Overcast,360,2012-11-04 22:55:00
6:15 PM,46.4,39.2,76,30.04,10.0,North,6.9,-,N/A,,Overcast,350,2012-11-04 23:15:00
6:35 PM,46.0,38.3,74,30.05,10.0,North,4.6,-,N/A,,Overcast,360,2012-11-04 23:35:00
6:55 PM,45.9,37.2,72,30.05,10.0,Calm,Calm,-,N/A,,Overcast,0,2012-11-04 23:55:00
7:15 PM,45.9,37.4,72,30.05,10.0,Calm,Calm,-,N/A,,Overcast,0,2012-11-05 00:15:00
7:35 PM,45.9,37.6,73,30.05,10.0,Calm,Calm,-,N/A,,Overcast,0,2012-11-05 00:35:00
7:55 PM,45.7,37.9,74,30.06,10.0,SE,3.5,-,N/A,,Overcast,130,2012-11-05 00:55:00
8:15 PM,45.5,38.1,75,30.06,10.0,East,3.5,-,N/A,,Overcast,90,2012-11-05 01:15:00
8:35 PM,45.5,38.5,76,30.06,10.0,East,3.5,-,N/A,,Overcast,100,2012-11-05 01:35:00
8:55 PM,45.1,38.3,77,30.06,10.0,Calm,Calm,-,N/A,,Overcast,0,2012-11-05 01:55:00
9:15 PM,44.6,37.9,77,30.06,10.0,Calm,Calm,-,N/A,,Mostly Cloudy,0,2012-11-05 02:15:00
9:35 PM,43.3,38.1,82,30.06,10.0,Calm,Calm,-,N/A,,Mostly Cloudy,0,2012-11-05 02:35:00
9:55 PM,42.4,38.5,86,30.06,10.0,Calm,Calm,-,N/A,,Mostly Cloudy,0,2012-11-05 02:55:00
10:15 PM,41.5,38.3,88,30.06,10.0,Calm,Calm,-,N/A,,Mostly Cloudy,0,2012-11-05 03:15:00
10:35 PM,41.0,37.9,89,30.06,10.0,Calm,Calm,-,N/A,,Scattered Clouds,0,2012-11-05 03:35:00
10:55 PM,39.6,37.4,92,30.06,10.0,Calm,Calm,-,N/A,,Scattered Clouds,0,2012-11-05 03:55:00